Location: Newark
(34.0667°N, 125.0833°E)
Time: 06:18:56
(UTC+00:00)

ISS - Visible Passes

Search period start: 16 December 2019 00:00
Search period end: 26 December 2019 00:00
Orbit: 411 x 421 km, 51.6° (Epoch: 16 December)

Date Brightness Start Highest point End Pass type
(mag) Time Alt. Az. Time Alt. Az. Time Alt. Az.
20 Dec -1.7 21:32:17 10° SSW 21:35:13 30° SE 21:38:09 10° ENE visible
21 Dec -0.7 20:44:44 10° SSE 20:46:49 16° SE 20:48:54 10° E visible
22 Dec -3.9 21:31:46 13° SW 21:34:42 73° NW 21:38:00 10° NE visible
23 Dec -2.8 20:46:43 46° E 20:46:43 46° E 20:49:24 10° NE visible
24 Dec -2.6 21:34:08 24° NW 21:34:21 24° NW 21:37:08 10° NNE visible
25 Dec -1.2 20:48:14 14° NNE 20:48:14 14° NNE 20:48:51 10° NNE visible
